Location: La Pernelle
(49.6188°N, 1.2999°W)
Time: 10:56:47
(UTC+00:00)

Cosmos 2237 Rocket - Pass Details

Date: 12 June 2021
Orbit: 835 x 850 km, 71.0° (Epoch: 27 July)

Event Time Altitude Azimuth Distance (km) Brightness Sun altitude
Exits shadow 22:41:23 - 112° (ESE) 2,546 4.3 -14.8°
Reaches altitude 10° 22:42:45 10° 98° (E) 2,449 4.3 -14.9°
Maximum altitude 22:43:10 10° 94° (E) 2,444 4.4 -14.9°
Drops below altitude 10° 22:43:40 10° 89° (E) 2,453 4.4 -14.9°
Sets 22:48:58 0° 47° (NE) 3,393 5.7 -15.2°
